ASTRO-H (HITOMI)

Last updated on Sun Apr 12 2026 00:02:18 GMT+0000 (Coordinated Universal Time)

1 41337U 16012A 26101.48476581 .00002282 00000+0 13043-3 0 9998 2 41337 30.9982 144.8766 0009636 301.0328 58.9364 15.10216612557195
UTC large
Height (km)
Speed (km/s)
/
Latitude / Longitude
Inclination (degrees)
Orbital Period (minutes)
Azimuth
Elevation
Range (km)
Doppler Factor

Next 0 passes for location: London (51.5072 / 0.1276)

Sorry there are no passes over London.
ASTRO-H (HITOMI)